This is the latest recevied weather packets stored in our database for station/object K6CQU-13. If no packets are shown the sender has not sent any weather packets the latest 10 day(s).
| Time | Temp. | Humidity | Pressure | Rain* | Wind** | Luminosity | Snow |
|---|---|---|---|---|---|---|---|
| 1777649418 | 17.78° C | 69% | 1013.9 hPa | 0 mm | - | 367 W/m² | - |
| 1777649118 | 17.22° C | 71% | 1013.9 hPa | 0 mm | - | 352 W/m² | - |
| 1777648818 | 17.22° C | 71% | 1013.9 hPa | 0 mm | - | 334 W/m² | - |
| 1777648518 | 16.67° C | 73% | 1013.8 hPa | 0 mm | - | 318 W/m² | - |
| 1777648218 | 16.67° C | 75% | 1013.8 hPa | 0 mm | - | 303 W/m² | - |
| 1777647918 | 16.11° C | 75% | 1013.8 hPa | 0 mm | - | 287 W/m² | - |
| 1777647618 | 16.67° C | 76% | 1013.8 hPa | 0 mm | - | 270 W/m² | - |
| 1777647318 | 16.11° C | 78% | 1013.7 hPa | 0 mm | - | 253 W/m² | - |
| 1777647018 | 15.56° C | 80% | 1013.8 hPa | 0 mm | - | 237 W/m² | - |
| 1777646718 | 15.56° C | 81% | 1013.8 hPa | 0 mm | - | 222 W/m² | - |
| 1777646418 | 15° C | 83% | 1013.7 hPa | 0 mm | - | 205 W/m² | - |
| 1777646118 | 15° C | 84% | 1013.7 hPa | 0 mm | - | 189 W/m² | - |
| 1777645818 | 14.44° C | 85% | 1013.6 hPa | 0 mm | - | 174 W/m² | - |
| 1777645518 | 14.44° C | 86% | 1013.6 hPa | 0 mm | - | 143 W/m² | - |
| 1777645218 | 13.89° C | 87% | 1013.5 hPa | 0 mm | - | 140 W/m² | - |
| 1777644918 | 13.33° C | 89% | 1013.5 hPa | 0 mm | - | 128 W/m² | - |
| 1777644618 | 13.33° C | 90% | 1013.4 hPa | 0 mm | - | 115 W/m² | - |
| 1777644318 | 12.78° C | 91% | 1013.4 hPa | 0 mm | - | 103 W/m² | - |
| 1777644018 | 12.22° C | 91% | 1013.4 hPa | 0 mm | - | 91 W/m² | - |
| 1777643718 | 12.22° C | 90% | 1013.3 hPa | 0 mm | - | 78 W/m² | - |
| 1777643418 | 12.22° C | 90% | 1013.2 hPa | 0 mm | - | 53 W/m² | - |
| 1777643118 | 12.22° C | 89% | 1013.2 hPa | 0 mm | - | 29 W/m² | - |
| 1777642818 | 12.22° C | 90% | 1013 hPa | 0 mm | - | 22 W/m² | - |
| 1777642518 | 11.67° C | 89% | 1013 hPa | 0 mm | - | 18 W/m² | - |
| 1777642218 | 11.67° C | 89% | 1013 hPa | 0 mm | - | 15 W/m² | - |
* Rain latest hour (hover to see other rain measurements)
** Current wind speed in m/s (hover to see current wind gust speed)